Location: Bismarck
(46.7731°N, 100.8200°W)
Time: 04:52:39
(UTC-05:00)

ISS - All Passes

Search period start: 24 May 2016 00:00
Search period end: 03 June 2016 00:00
Orbit: 402 x 404 km, 51.6° (Epoch: 23 May)

Date Brightness Start Highest point End Pass type
(mag) Time Alt. Az. Time Alt. Az. Time Alt. Az.
24 May - 00:41:16 10° SW 00:44:28 57° SSE 00:47:41 10° ENE visible
24 May - 02:17:54 10° W 02:21:01 40° NNW 02:24:09 10° ENE visible
24 May - 03:54:53 10° WNW 03:57:56 35° N 04:00:59 10° ENE visible
24 May - 05:31:21 10° WNW 05:34:38 87° SSW 05:37:53 10° ESE daylight
24 May - 07:08:40 10° W 07:10:39 15° SW 07:12:39 10° S daylight
24 May - 23:48:50 10° SSW 23:51:49 33° SE 23:54:48 10° ENE visible
25 May - 01:24:58 10° W 01:28:11 52° NNW 01:31:24 10° ENE visible
25 May - 03:02:01 10° WNW 03:05:02 33° N 03:08:03 10° ENE visible
25 May - 04:38:36 10° WNW 04:41:51 62° NNE 04:45:06 10° ESE visible
25 May - 06:15:20 10° W 06:18:07 26° SW 06:20:53 10° SSE daylight
25 May - 22:56:47 10° S 22:59:14 20° SE 23:01:41 10° E visible
26 May - 00:32:06 10° WSW 00:35:22 77° NNW 00:38:38 10° ENE visible
26 May - 02:09:06 10° WNW 02:12:07 34° N 02:15:09 10° ENE visible
26 May - 03:45:51 10° WNW 03:49:01 45° NNE 03:52:11 10° E visible
26 May - 05:22:21 10° WNW 05:25:29 44° SW 05:28:36 10° SE daylight
26 May - 22:05:36 10° SSE 22:06:42 11° SE 22:07:49 10° ESE visible
26 May - 23:39:22 10° SW 23:42:37 67° SSE 23:45:52 10° ENE visible
27 May - 01:16:07 10° W 01:19:13 38° N 01:22:19 10° ENE visible
27 May - 02:53:03 10° WNW 02:56:08 37° N 02:59:12 10° E visible
27 May - 04:29:31 10° WNW 04:32:47 76° SSW 04:36:02 10° ESE visible
27 May - 06:07:10 10° WSW 06:08:44 13° SW 06:10:19 10° SSW daylight
27 May - 22:46:50 10° SW 22:49:54 39° SE 22:53:00 10° ENE visible
28 May - 00:23:09 10° W 00:26:20 48° NNW 00:29:32 10° ENE visible
28 May - 02:00:12 10° WNW 02:03:13 33° N 02:06:14 10° ENE visible
28 May - 03:36:44 10° WNW 03:40:00 70° NNE 03:43:16 10° ESE visible
28 May - 05:13:35 10° W 05:16:12 22° SW 05:18:48 10° SSE visible
28 May - 21:54:38 10° SSW 21:57:17 23° SE 21:59:57 10° E daylight
28 May - 23:30:14 10° WSW 23:33:30 68° NNW 23:36:46 10° ENE visible
29 May - 01:07:16 10° WNW 01:10:17 33° N 01:13:18 10° ENE visible
29 May - 02:43:58 10° WNW 02:47:09 49° NNE 02:50:21 10° E visible
29 May - 04:20:30 10° WNW 04:23:34 38° SW 04:26:37 10° SSE visible
29 May - 21:03:01 10° SSE 21:04:43 13° SE 21:06:24 10° ESE daylight
29 May - 22:37:26 10° WSW 22:40:42 78° SSE 22:43:58 10° ENE visible
30 May - 00:14:17 10° WNW 00:17:21 36° N 00:20:25 10° ENE visible
30 May - 01:51:09 10° WNW 01:54:16 38° N 01:57:22 10° E visible
30 May - 03:27:37 10° WNW 03:30:51 65° SSW 03:34:05 10° SE visible
30 May - 05:05:51 10° WSW 05:06:45 11° SW 05:07:39 10° SSW visible
30 May - 21:44:49 10° SW 21:47:57 46° SSE 21:51:07 10° ENE daylight
30 May - 23:21:17 10° W 23:24:26 44° NNW 23:27:36 10° ENE visible
31 May - 00:58:17 10° WNW 01:01:19 34° N 01:04:21 10° ENE visible
31 May - 02:34:48 10° WNW 02:38:04 79° NNE 02:41:20 10° ESE visible
31 May - 04:11:48 10° W 04:14:12 19° SW 04:16:35 10° S visible
31 May - 20:52:28 10° SSW 20:55:16 27° SE 20:58:06 10° E daylight
31 May - 22:28:18 10° WSW 22:31:33 61° NNW 22:34:48 10° ENE visible
01 Jun - 00:05:21 10° WNW 00:08:22 33° N 00:11:23 10° ENE visible
01 Jun - 01:42:00 10° WNW 01:45:13 54° NNE 01:48:26 10° E visible
01 Jun - 03:18:36 10° WNW 03:21:34 32° SW 03:24:31 10° SSE visible
01 Jun - 20:00:36 10° S 20:02:40 16° SE 20:04:45 10° E daylight
01 Jun - 21:35:27 10° WSW 21:38:43 89° SSE 21:42:00 10° ENE daylight
01 Jun - 23:12:21 10° WNW 23:15:24 35° N 23:18:28 10° ENE visible
02 Jun - 00:49:11 10° WNW 00:52:19 41° NNE 00:55:26 10° E visible
02 Jun - 02:25:39 10° WNW 02:28:51 55° SSW 02:32:03 10° SE visible
02 Jun - 20:42:44 10° SW 20:45:56 54° SSE 20:49:08 10° ENE daylight
02 Jun - 22:19:20 10° W 22:22:27 41° NNW 22:25:36 10° ENE visible
